Hereford, TX

2:40 AM CDT on September 20, 2017 (GMT -0500)
Hereford Municipal

Weather History for KHRX - February, 2013

Change the Weather History Date:

Monday, February 18, 2013

  Actual Average (KCVN) Record (KCVN)
Temperature  
Mean Temperature 39 °F -  
Max Temperature 50 °F 57 °F 82 °F (2016)
Min Temperature 24 °F 28 °F 1 °F (1942)
Degree Days  
Heating Degree Days 26    
Moisture  
Dew Point 15 °F    
Average Humidity 38    
Maximum Humidity 64    
Minimum Humidity 22    
Precipitation  
Precipitation 0.00 in - - ()
Sea Level Pressure  
Sea Level Pressure 29.93 in    
Wind  
Wind Speed - (North)    
Max Wind Speed -    
Max Gust Speed -    
Visibility 10 miles    
Events      
Averages and records for this station are not official NWS values.
T = Trace of Precipitation, MM = Missing Value Source: NWS Daily Summary

Daily Weather History Graph

Daily Weather History Graph

Search for Another Location

Airport or City:

Trip Planner

Search our weather history database for the weather conditions in past years. The results will help you decide how hot, cold, wet, or windy it might be!

Date:

Astronomy

Feb. 18, 2013 Rise Set
Actual Time 7:31 AM CST 6:35 PM CST
Civil Twilight 7:05 AM CST 7:01 PM CST
Nautical Twilight 6:36 AM CST 7:30 PM CST
Astronomical Twilight 6:06 AM CST 7:59 PM CST
Moon 12:29 PM CST (2/18) 2:06 AM CST (2/18)
Length of Visible Light 11h 55m
Length of Day
11h 03m
First Quarter, 58% of the Moon is Illuminated
Feb 18
First Quarter
Feb 25
Full
Mar 4
Last Quarter
Mar 11
New
Mar 19
First Quarter

Hourly Weather History & Observations

Time (CST) Temp. Dew Point Humidity Pressure Visibility Wind Dir Wind Speed Gust Speed Precip Events Conditions
12:15 AM 41.0 °F 10.4 °F 29% 29.66 in 10.0 mi North - - N/A   Clear
12:35 AM 35.6 °F 12.2 °F 38% 29.66 in 10.0 mi North - - N/A   Clear
12:55 AM 39.2 °F 10.4 °F 31% 29.66 in 10.0 mi North - - N/A   Clear
1:15 AM 41.0 °F 10.4 °F 29% 29.66 in 10.0 mi North - - N/A   Clear
1:35 AM 41.0 °F 10.4 °F 29% 29.67 in 10.0 mi North - - N/A   Clear
1:55 AM 42.8 °F 10.4 °F 27% 29.67 in 10.0 mi North - - N/A   Clear
2:15 AM 46.4 °F 8.6 °F 22% 29.67 in 10.0 mi North - - N/A   Clear
2:35 AM 46.4 °F 8.6 °F 22% 29.67 in 10.0 mi North - - N/A   Clear
2:55 AM 42.8 °F 10.4 °F 27% 29.67 in 10.0 mi North - - N/A   Clear
3:15 AM 42.8 °F 8.6 °F 25% 29.67 in 10.0 mi North - - N/A   Clear
3:35 AM 41.0 °F 8.6 °F 26% 29.67 in 10.0 mi North - - N/A   Clear
3:55 AM 41.0 °F 10.4 °F 29% 29.67 in 10.0 mi North - - N/A   Clear
4:15 AM 37.4 °F 10.4 °F 33% 29.67 in 10.0 mi North - - N/A   Clear
4:35 AM 37.4 °F 12.2 °F 36% 29.68 in 10.0 mi North - - N/A   Clear
4:55 AM 39.2 °F 12.2 °F 33% 29.70 in 10.0 mi North - - N/A   Clear
5:15 AM 39.2 °F 12.2 °F 33% 29.73 in 10.0 mi North - - N/A   Clear
5:35 AM 37.4 °F 14.0 °F 38% 29.75 in 10.0 mi North - - N/A   Clear
5:55 AM 35.6 °F 17.6 °F 48% 29.77 in 10.0 mi North - - N/A   Clear
6:15 AM 33.8 °F 17.6 °F 52% 29.78 in 10.0 mi North - - N/A   Clear
6:35 AM 35.6 °F 19.4 °F 52% 29.79 in 10.0 mi North - - N/A   Clear
6:55 AM 33.8 °F 19.4 °F 56% 29.81 in 10.0 mi North - - N/A   Clear
7:15 AM 33.8 °F 19.4 °F 56% 29.83 in 10.0 mi North - - N/A   Clear
7:35 AM 33.8 °F 21.2 °F 60% 29.84 in 10.0 mi North - - N/A   Clear
7:55 AM 33.8 °F 21.2 °F 60% 29.86 in 10.0 mi North - - N/A   Clear
8:15 AM 35.6 °F 21.2 °F 56% 29.87 in 10.0 mi North - - N/A   Clear
8:35 AM 37.4 °F 21.2 °F 52% 29.90 in 10.0 mi North - - N/A   Clear
8:55 AM 37.4 °F 21.2 °F 52% 29.91 in 10.0 mi North - - N/A   Clear
9:15 AM 39.2 °F 21.2 °F 49% 29.93 in 10.0 mi North - - N/A   Clear
9:35 AM 41.0 °F 19.4 °F 42% 29.94 in 10.0 mi North - - N/A   Clear
9:55 AM 41.0 °F 19.4 °F 42% 29.95 in 10.0 mi North - - N/A   Clear
10:15 AM 42.8 °F 19.4 °F 39% 29.96 in 10.0 mi North - - N/A   Clear
10:35 AM 42.8 °F 19.4 °F 39% 29.97 in 10.0 mi North - - N/A   Clear
10:55 AM 44.6 °F 19.4 °F 37% 29.99 in 10.0 mi North - - N/A   Clear
11:15 AM 44.6 °F 17.6 °F 34% 30.00 in 10.0 mi North - - N/A   Clear
11:35 AM 46.4 °F 17.6 °F 32% 30.01 in 10.0 mi North - - N/A   Clear
11:55 AM 46.4 °F 14.0 °F 27% 30.02 in 10.0 mi North - - N/A   Clear
12:15 PM 46.4 °F 14.0 °F 27% 30.02 in 10.0 mi North - - N/A   Clear
12:35 PM 48.2 °F 14.0 °F 25% 30.01 in 10.0 mi North - - N/A   Clear
12:55 PM 50.0 °F 17.6 °F 28% 30.01 in 10.0 mi North - - N/A   Clear
1:15 PM 50.0 °F 17.6 °F 28% 30.01 in 10.0 mi North - - N/A   Clear
1:35 PM 48.2 °F 17.6 °F 30% 30.00 in 10.0 mi North - - N/A   Clear
1:55 PM 50.0 °F 17.6 °F 28% 30.01 in 10.0 mi North - - N/A   Clear
2:15 PM 50.0 °F 17.6 °F 28% 30.01 in 10.0 mi North - - N/A   Clear
2:35 PM 50.0 °F 15.8 °F 26% 30.02 in 10.0 mi North - - N/A   Clear
2:55 PM 50.0 °F 14.0 °F 24% 30.02 in 10.0 mi North - - N/A   Clear
3:15 PM 50.0 °F 14.0 °F 24% 30.02 in 10.0 mi North - - N/A   Clear
3:35 PM 50.0 °F 14.0 °F 24% 30.02 in 10.0 mi North - - N/A   Clear
3:55 PM 50.0 °F 14.0 °F 24% 30.03 in 10.0 mi North - - N/A   Clear
4:15 PM 50.0 °F 14.0 °F 24% 30.04 in 10.0 mi North - - N/A   Clear
4:35 PM 50.0 °F 14.0 °F 24% 30.04 in 10.0 mi North - - N/A   Clear
5:15 PM 50.0 °F 14.0 °F 24% 30.04 in 10.0 mi North - - N/A   Clear
5:35 PM 48.2 °F 14.0 °F 25% 30.05 in 10.0 mi North - - N/A   Clear
5:55 PM 46.4 °F 14.0 °F 27% 30.05 in 10.0 mi North - - N/A   Clear
6:15 PM 46.4 °F 14.0 °F 27% 30.06 in 10.0 mi North - - N/A   Clear
6:35 PM 44.6 °F 14.0 °F 29% 30.07 in 10.0 mi North - - N/A   Clear
6:55 PM 42.8 °F 14.0 °F 31% 30.07 in 10.0 mi North - - N/A   Clear
7:15 PM 42.8 °F 15.8 °F 34% 30.07 in 10.0 mi North - - N/A   Clear
7:35 PM 35.6 °F 17.6 °F 48% 30.08 in 10.0 mi North - - N/A   Clear
7:55 PM 37.4 °F 15.8 °F 41% 30.08 in 10.0 mi North - - N/A   Clear
8:15 PM 33.8 °F 17.6 °F 52% 30.08 in 10.0 mi North - - N/A   Clear
8:35 PM 32.0 °F 15.8 °F 51% 30.09 in 10.0 mi North - - N/A   Clear
8:55 PM 33.8 °F 17.6 °F 52% 30.09 in 10.0 mi North - - N/A   Clear
9:15 PM 32.0 °F 17.6 °F 55% 30.09 in 10.0 mi North - - N/A   Clear
9:35 PM 32.0 °F 17.6 °F 55% 30.10 in 10.0 mi North - - N/A   Clear
9:55 PM 32.0 °F 17.6 °F 55% 30.10 in 10.0 mi North - - N/A   Clear
10:15 PM 32.0 °F 17.6 °F 55% 30.11 in 10.0 mi North - - N/A   Clear
10:35 PM 32.0 °F 17.6 °F 55% 30.12 in 10.0 mi North - - N/A   Clear
10:55 PM 30.2 °F 15.8 °F 55% 30.12 in 10.0 mi North - - N/A   Clear
11:15 PM 30.2 °F 15.8 °F 55% 30.12 in 10.0 mi North - - N/A   Clear
11:35 PM 28.4 °F 14.0 °F 55% 30.12 in 10.0 mi North - - N/A   Clear
11:55 PM 24.8 °F 14.0 °F 64% 30.12 in 10.0 mi North - - N/A   Clear